Regional Weather Roundup
Issued by NWS

Home | Current Version | Previous Version | Graphics & Text | Print | Product List | Glossary On
Versions: 1 2 3 4 5 6 7 8 9 10 11 12 13 14 15 16 17 18 19 20 21 22 23 24 25 26 27 28 29 30 31 32 33 34 35 36 37 38 39 40 41 42 43 44 45 46 47 48 49 50
392
ASUS43 KFSD 261710
RWRSD

WEATHER ROUNDUP FOR SOUTH DAKOTA
NATIONAL WEATHER SERVICE SIOUX FALLS SD
1200 PM CDT SUN MAR 26 2017

NOTE: "FAIR" INDICATES FEW OR NO CLOUDS BELOW 12,000 FEET WITH NO
SIGNIFICANT WEATHER AND/OR OBSTRUCTIONS TO VISIBILITY.


SDZ001>005-009-010-012>017-261800-
NORTHWEST AND NORTH CENTRAL SOUTH DAKOTA

CITY           SKY/WX    TMP DP  RH WIND       PRES   REMARKS
BUFFALO          N/A     50  40  68 NW9       29.88R
FAITH            N/A     41  38  89 MISG      29.93R
MOBRIDGE       CLOUDY    42  36  79 CALM      29.92R
$$

SDZ012>016-024>037-041>051-057-063-072>074-261800-
SOUTHWEST AND SOUTH CENTRAL SOUTH DAKOTA

CITY           SKY/WX    TMP DP  RH WIND       PRES   REMARKS
RAPID CTY ARPT LGT RAIN  42  38  85 N16       29.93R
PIERRE         CLOUDY    41  37  86 SE8       29.94R
CUSTER         LGT RAIN  40  36  86 VRB3      29.90R
ELLSWORTH AFB  LGT RAIN  41  41 100 N12       29.93
PHILIP         CLOUDY    40  40 100 E3        29.93R
PINE RIDGE     CLOUDY    49  38  65 N10       29.91R
SPEARFISH      RAIN      37  36  93 CALM      29.96R
WINNER         CLOUDY    43  39  86 E8        29.93S
$$

SDZ004>011-016>023-039-040-261800-
NORTHEAST SOUTH DAKOTA

CITY           SKY/WX    TMP DP  RH WIND       PRES   REMARKS
ABERDEEN       CLOUDY    41  35  79 CALM      29.95S
WATERTOWN      CLOUDY    38  35  89 NE7       29.94S
BROOKINGS      CLOUDY    38  36  92 NE6       29.93S FOG
SISSETON         N/A     40  38  93 CALM      29.95F
$$

SDZ017-020-022-023-036>040-048>070-261800-
SOUTHEAST SOUTH DAKOTA

CITY           SKY/WX    TMP DP  RH WIND       PRES   REMARKS
SIOUX FALLS    CLOUDY    43  38  82 NE6       29.93S
HURON          CLOUDY    42  37  82 E5        29.95S
CHAMBERLAIN    CLOUDY    43  41  91 SE3       29.95S
MITCHELL       CLOUDY    43  39  86 NE5       29.95S
YANKTON        CLOUDY    41  36  81 CALM      29.95R
$$

ABBREVIATIONS USED IN REMARKS
   TC - TEMPERATURE IN CELSIUS
  WCI - WIND CHILL INDEX
   HX - HEAT INDEX
  VSB - VISIBILITY





USA.gov is the U.S. government's official web portal to all federal, state and local government web resources and services.